Powrót do katalogu

COSMOS 2486

AktywnyNawigacjaSSO
NORAD 39177·PAYLOAD·🇷🇺 Russia

Wystrzelony Jun 7, 2013 z Plesetsk Cosmodrome

Loading…

Następne Przeloty (najbliższe 24 godziny)

TLE

ŚwieżeSource: Space-Track

Epoka: Sep 14, 2026, 14:44 UTC

1 39177U 13028A   26257.61423437 -.00000049  00000-0 -11294-5 0  9990
2 39177  98.0253 221.5828 0012246  95.8246 264.4349 14.56224103704396

Śledź COSMOS 2486 w czasie rzeczywistym z AllMySat

Download on the App Store